Location: Newark
(50.4348°N, 30.5552°E)
Time: 02:36:17
(UTC+00:00)

Tiros 1 despin weight - Pass Details

Date: 31 January 2020
Orbit: 594 x 642 km, 48.2° (Epoch: 25 February)

Event Time Altitude Azimuth Distance (km) Brightness Sun altitude
Rises 13:02:28 0° 278° (W) 2,895 ? 12.4°
Reaches altitude 10° 13:05:22 10° 260° (W) 1,996 ? 12.1°
Maximum altitude 13:08:27 18° 217° (SW) 1,547 ? 11.8°
Drops below altitude 10° 13:11:33 10° 175° (S) 2,007 ? 11.4°
Sets 13:14:30 0° 157° (SSE) 2,919 ? 11.1°
